Location: ??
(35.5052°N, 139.7262°E)
Time: 18:12:10
(UTC+00:00)

Cosmos 1814 Rocket - Pass Details

Date: 20 June 2021
Orbit: 745 x 787 km, 74.1° (Epoch: 29 July)

Event Time Altitude Azimuth Distance (km) Brightness Sun altitude
Exits shadow 15:53:50 62° 65° (ENE) 852 4.3 -28.7°
Drops below altitude 10° 15:58:23 10° 23° (NNE) 2,282 7.4 -28.4°
Sets 16:00:45 0° 21° (NNE) 3,205 8.5 -28.2°
